Regional Weather Roundup
Issued by NWS

Home | Current Version | Previous Version | Text Only | Print | Product List | Glossary Off
Versions: 1 2 3 4 5 6 7 8 9 10 11 12 13 14 15 16 17 18 19 20 21 22 23 24 25 26 27 28 29 30 31 32 33 34 35 36 37 38 39 40 41 42 43 44 45 46 47 48 49 50

000
ASUS43 KOAX 150710
RWRNE

WEATHER ROUNDUP FOR NEBRASKA
NATIONAL WEATHER SERVICE OMAHA NE
100 AM CST FRI DEC 15 2017

NOTES: SATELLITE DATA IS BEING USED TO AUGMENT CLOUD COVER ABOVE
       12000 FEET.
       "FAIR" INDICATES FEW OR NO CLOUDS BELOW 12,000 FEET WITH NO
       SIGNIFICANT WEATHER AND/OR OBSTRUCTIONS TO VISIBILITY.


NEZ001>004-019>022-054>056-150800-
NEBRASKA PANHANDLE

CITY           SKY/WX    TMP DP  RH WIND       PRES   REMARKS
SCOTTSBLUFF    CLOUDY    14   9  80 E3        30.13F
ALLIANCE       CLOUDY    12  10  92 W3        30.10F
CHADRON        CLOUDY    15  13  91 W5        30.09F WCI   8
GORDON         FAIR      23  17  79 W8        30.07F WCI  14
KIMBALL        CLOUDY    16  11  81 W10       30.13F WCI   4
SIDNEY         CLOUDY     9   6  88 W9        30.15F WCI  -4
$$

NEZ057>060-069>072-079>082-150800-
SOUTHWEST NEBRASKA

CITY           SKY/WX    TMP DP  RH WIND       PRES   REMARKS
NORTH PLATTE   CLEAR     18  16  92 W5        30.17F WCI  11
IMPERIAL       CLEAR     21  15  78 W9        30.19F WCI  11
LEXINGTON      CLEAR     23  19  85 W5        30.17F WCI  17
MCCOOK         CLEAR     22  18  85 W7        30.20F WCI  13
OGALLALA       CLOUDY    16  13  88 W5        30.17F WCI   9
$$

NEZ005>010-023>029-035>040-094-150800-
NORTH CENTRAL NEBRASKA

CITY           SKY/WX    TMP DP  RH WIND       PRES   REMARKS
VALENTINE      CLEAR     24  20  84 W7        30.09F WCI  16
AINSWORTH      CLEAR     26  25  96 W9        30.09F WCI  17
BROKEN BOW     CLEAR     29  24  82 W9        30.14F WCI  20
O`NEILL        CLOUDY    31  27  87 SW5       30.10F WCI  26
ORD            CLOUDY    30  25  81 W9        30.13F WCI  22
THEDFORD       CLEAR     24  21  90 W3        30.13F
$$

NEZ041-046>049-061>064-073>077-083>087-150800-
SOUTH CENTRAL NEBRASKA

CITY           SKY/WX    TMP DP  RH WIND       PRES   REMARKS
GRAND ISLAND   CLOUDY    27  24  89 W8        30.17F WCI  19
AURORA         CLOUDY    29  27  90 NW8       30.15F WCI  21
HASTINGS       CLEAR     24  20  84 W6        30.17F WCI  17
HEBRON         PTCLDY    31  28  90 NW5       30.18S WCI  26
HOLDREGE       CLEAR     26  23  89 W5        30.18F WCI  20
KEARNEY        CLOUDY    29  23  78 W6        30.18F WCI  23
YORK           CLOUDY    32  32 100 CALM      30.15F
$$

NEZ011>018-030>034-042>045-150800-
NORTHEAST NEBRASKA

CITY           SKY/WX    TMP DP  RH WIND       PRES   REMARKS
NORFOLK        CLOUDY    30  26  85 W9        30.11F WCI  22
ALBION         CLOUDY    32  28  84 CALM      30.12F
BLAIR          MOCLDY    32  26  78 W7        30.11S WCI  25
COLUMBUS       CLOUDY    30  25  81 W8        30.14F WCI  22
FREMONT        CLOUDY    31  26  83 W6        30.13F WCI  25
TEKAMAH        CLOUDY    32  23  69 NW7       30.12F WCI  26
WAYNE          CLOUDY    32  29  90 W8        30.10S WCI  25
$$

NEZ050>053-065>068-078-088>093-150800-
SOUTHEAST NEBRASKA

CITY           SKY/WX    TMP DP  RH WIND       PRES   REMARKS
LINCOLN        CLOUDY    35  29  78 NW9       30.16S WCI  28
OMAHA EPPLEY   PTCLDY    32  22  66 NW14      30.13S WCI  22
BEATRICE       PTCLDY    31  29  93 NW10      30.15S WCI  22
FALLS CITY     CLOUDY    37  30  75 NW9       30.13S WCI  30
NEBRASKA CITY  CLOUDY    36  31  82 NW9       30.12F WCI  29
PLATTSMOUTH    CLOUDY    35  27  73 NW13      30.11F WCI  26
$$

NEZ044-045-051>053-067-150800-
OMAHA AREA

CITY           SKY/WX    TMP DP  RH WIND       PRES   REMARKS
OMAHA EPPLEY   PTCLDY    32  22  66 NW14      30.13S WCI  22
BLAIR          MOCLDY    32  26  78 W7        30.11S WCI  25
FREMONT        CLOUDY    31  26  83 W6        30.13F WCI  25
MILLARD        CLOUDY    35  27  72 NW9       30.13F WCI  28
OFFUTT AFB     PTCLDY    34  23  63 NW15G25   30.12S WCI  25
PLATTSMOUTH    CLOUDY    35  27  73 NW13      30.11F WCI  26
WAHOO          PTSUNNY   32  26  77 NW5       30.14S WCI  27
$$




USA.gov is the U.S. government's official web portal to all federal, state and local government web resources and services.